Regional Weather Roundup
Issued by NWS

Home | Current Version | Previous Version | Graphics & Text | Print | Product List | Glossary On
Versions: 1 2 3 4 5 6 7 8 9 10 11 12 13 14 15 16 17 18 19 20 21 22 23 24 25 26 27 28 29 30 31 32 33 34 35 36 37 38 39 40 41 42 43 44 45 46 47 48 49 50
000
ASUS43 KDTX 110710
RWRMI
MICHIGAN HOURLY REGIONAL WEATHER ROUNDUP
NATIONAL WEATHER SERVICE DETROIT/PONTIAC MI
200 AM EST THU FEB 11 2016

NOTE: "FAIR" INDICATES FEW OR NO CLOUDS BELOW 12,000 FEET WITH NO
SIGNIFICANT WEATHER AND/OR OBSTRUCTION TO VISIBILITY.

MIZ047>049-052>055-059>063-066>070-074>076-081>083-110800-
SOUTHEAST LOWER MICHIGAN

CITY           SKY/WX    TMP DP  RH WIND       PRES   REMARKS
ADRIAN         CLOUDY    12   4  70 NW5       30.07R WCI   4
ALMA           PTCLDY     9   6  89 W6        30.06S WCI  -1
ANN ARBOR      PTCLDY     8   2  76 W7        30.05R WCI  -3
BAD AXE        CLOUDY    11   3  68 N16       29.98R WCI  -5
CARO           PTCLDY     1  -6  71 W7        30.02R WCI -11
DETROIT CITY   PTCLDY    12   0  58 NW7       30.04R WCI   1
DETROIT        FLURRIES  12   3  67 W10       30.06R WCI  -1
FLINT          CLOUDY    12   0  58 NW6       30.03S WCI   3
GROSSE ILE     CLOUDY    16   7  67 W12G17    30.04R WCI   3
HILLSDALE      CLOUDY    12   4  71 W8        30.03S WCI   1
HOWELL         CLEAR      8   4  83 W8        30.03S WCI  -4

CITY           SKY/WX    TMP DP  RH WIND       PRES   REMARKS
JACKSON        MOCLDY    11   2  67 NW7       30.05R WCI   0
LAMBERTVILLE   PTCLDY    11   4  74 W3        30.08R
LANSING        MOCLDY    10   4  76 W5        30.06R WCI   2
LAPEER         FAIR       6   0  75 W6        30.01S WCI  -5
MASON          CLEAR      9   4  80 W6        30.05R WCI  -1
MONROE         PTCLDY    13   4  68 NW8       30.06R WCI   2
MT. CLEMENS    CLEAR     10   0  63 NW13      30.01R WCI  -5
PONTIAC        CLOUDY     9   0  67 NW9       30.00R WCI  -4
PORT HOPE        N/A     14   5  67 NW22G35   29.96R WCI  -4
PORT HURON     CLEAR      9  -2  61 W8G17     29.99S WCI  -4
TRI CITIES     CLOUDY    10   1  67 W3        30.04S
MIDLAND        CLOUDY    11   3  70 W5        30.04S WCI   3
TROY           MOCLDY    13   2  64 NW9       30.05R WCI   0
SAGINAW HB     MOCLDY     9   3  78 W8        30.04S WCI  -4
$$
MIZ043>046-050>051-056>058-064>065-071>073-077>080-110800-
SOUTHWEST LOWER MICHIGAN

CITY           SKY/WX    TMP DP  RH WIND       PRES   REMARKS
BATTLE CREEK   CLOUDY    12   6  77 W7        30.07R WCI   1
BENTON HARBOR  LGT SNOW  19  13  77 NW12G20   30.11R WCI   7
BIG RAPIDS     CLEAR      9   6  88 W6        30.03S WCI  -1
COLDWATER      CLOUDY    14   8  74 W5        30.07S WCI   7
FREMONT        CLOUDY    14   5  68 NW9       30.08R WCI   2
HOLLAND        LGT SNOW  15   9  76 N5        30.10R WCI   8
GRAND RAPIDS   CLOUDY    16   7  67 NW10      30.07S WCI   4
IONIA          CLOUDY    14   8  76 NW8G16    30.06R WCI   3
KALAMAZOO      CLOUDY    13   7  77 W6        30.08R WCI   4
LUDINGTON      LGT SNOW  15   7  71 NW9       30.10S WCI   3
MARSHALL       CLOUDY    14   6  72 W6        30.06R WCI   5
MOUNT PLEASANT PTCLDY    11   5  76 W5        30.03S WCI   3
MUSKEGON       LGT SNOW  16   8  71 N5        30.11R WCI   9
SOUTH HAVEN    FLURRIES  15  12  87 SE6       30.10S WCI   7
$$
MIZ016>042-110800-
NORTHERN LOWER MICHIGAN

CITY           SKY/WX    TMP DP  RH WIND       PRES   REMARKS
ALPENA         MOCLDY     6  -1  73 NW7       29.99R WCI  -6
BEAVER ISLAND  CLOUDY    12   4  70 N7        30.03R WCI   1
BELLAIRE       LGT SNOW  13   6  73 NE5       30.03R WCI   5
CADILLAC       PTCLDY     8   3  81 W8        29.97S WCI  -5
CHARLEVOIX     CLOUDY    15   5  66 N16G22    30.04R WCI  -1
FRANKFORT      CLOUDY    15   5  64 NW14      30.08R WCI   0
GAYLORD        PTCLDY     6   0  76 N3        29.94R
GRAYLING       CLEAR     -6 -10  83 CALM      29.98R
HARBOR SPRINGS CLOUDY     7   1  78 E5        30.02R WCI  -2
HOUGHTON LAKE  PTCLDY     6   2  83 W6        29.98R WCI  -4
MANISTEE       CLOUDY    16   3  57 NW14G20   30.08S WCI   1
OSCODA         CLEAR      5  -1  77 NW5       29.99R WCI  -4
PELLSTON       CLOUDY     3  -1  83 CALM      30.03R
ROGERS CITY    CLOUDY     7   1  74 N12       30.02R WCI  -8
TRAVERSE CITY  LGT SNOW  15   7  70 NW15      30.03R WCI   0
$$
MIZ007>008-015-110800-
EASTERN UPPER MICHIGAN

CITY           SKY/WX    TMP DP  RH WIND       PRES   REMARKS
KINROSS        CLOUDY    -2  -8  78 NE8       30.02S WCI -17
MACKINAC ISLAN CLOUDY     3  -3  77 N10       30.02R WCI -12
NEWBERRY       CLOUDY     8   2  79 NW8       30.01R WCI  -5
S. S. MARIE    PTCLDY    -4 -13  65 N8        30.04R WCI -19
MUNISING         N/A     12   2  64 N16       30.07R WCI  -5
$$
MIZ004>006-011>014-085-110800-
CENTRAL UPPER MICHIGAN

CITY           SKY/WX    TMP DP  RH WIND       PRES   REMARKS
MANISTIQUE     CLOUDY     6   2  85 NW7       30.04R WCI  -6
ESCANABA       PTCLDY     7  -2  66 W7        30.11R WCI  -5
MENOMINEE      PTCLDY     3  -4  72 NW3       30.13S
SAWYER-GWINN   LGT SNOW   6   3  85 NW9       30.04S WCI  -7
$$
MIZ001>003-009>011-084-110800-
WESTERN UPPER MICHIGAN

CITY           SKY/WX    TMP DP  RH WIND       PRES   REMARKS
IRON MOUNTAIN  CLOUDY     7  -1  70 NW7       30.09R WCI  -5
HOUGHTON       FLURRIES   7   0  73 NW12      30.11R WCI  -8
COPPER HARBOR    N/A     12   6  77 NE17G24   30.13R WCI  -5
IRONWOOD       CLOUDY     7   0  72 SW7       30.13R WCI  -5
$$

ABBREVIATIONS USED IN REMARKS
   TC - TEMPERATURE IN CELSIUS
  WCI - WIND CHILL INDEX
   HX - HEAT INDEX
  VSB - VISIBILITY




USA.gov is the U.S. government's official web portal to all federal, state and local government web resources and services.